Showing default

COSMOS 2255, 22690

Orbit data source: Space-Track

COSMOS 2255, 22690 is a payload satellite owned by VKS (CIS) in LEO that was launched on Thu, 24 Jun 1993 UTC via a TSIKLON-3 launch vehicle from the Plesetsk Missile And Space Complex (PKMTR). Payload-class satellites include a variety of spacecraft equipped with specific instruments for various scientific and technological missions. These include communications satellites like Starlink; space stations such as the ISS; scientific satellites like the Hubble; Earth observation satellites from companies like Planet Labs, Umbra, and HawkEye 360; GPS; miniature CubeSats for education and research; and military/defense satellites.

Loading next visibility...
Identifier
22690, 1993-038D
Orbit
LEO
Country
Flag of CISCIS
Related business
Manufacturer
NPO PM
Mission
Defense Communications
Bus & Motor
STRELA-3, Unknown motor
Mass
225 kg wet, 225 kg dry
Launch date (UTC)
1993-06-24 (33 years ago)
Launch vehicle
TSIKLON-3
Launch site
Plesetsk Missile And Space Complex (PKMTR)
Object type
Payload
Rocket body
Debris
Shape & HBR
Cyl, 0.8 m
Radar Cross Section
1.257 m², Medium (>0.1 m² and < 1m²)

Expand to show TLE details & history
Last TLE update: 13 hours ago

TLE from 13 hours ago
0 COSMOS 2255
1 22690U 93038D   26125.39044493  .00000027  00000-0  91777-4 0  9998
2 22690  82.5829 256.9504 0006819  84.7678 329.8885 12.63327235515828
Epoch: 2026-05-05T09:22Z
TLE epoch observation values (Epoch: 2026-05-05T09:22:14.441Z)
Latitude
54.03958°
Longitude
-96.59028°
Altitude
1,413.469 km
Speed
7.161 km/s
True Right ascension
17h 48m 56s
True Declination
53° 53' 23"
Sunlit
Object was in daylight at epoch
Visualization orbit readout
Latitude
Unknown
Longitude
Unknown
Altitude
Unknown
Speed
Unknown
Apparent Right ascension
Unknown
Apparent Declination
Unknown
Sunlit
N/A
Visualization observer readout
Local Sidereal Time
06:10:34
Azimuth
Unknown
Elevation
Unknown
Doppler factor
Unknown
Orbital elements
Apogee altitude
1,411.869 km
Perigee altitude
1,401.252 km
Semi-major axis
7,784.697 km
Eccentricity
0.00068
Inclination
82.5829°
RAAN
256.9504°
Arg. of periapsis
84.7678°
True anomaly
329.84927°
Mean anomaly
329.8885°
Eccentric anomaly
329.86889°
Mean motion
3.15995 °/min
Orbital period
113.93 mins
BSTAR
0.000091777
Loading maneuver chart data...
Computing Atmospheric mass density...
Loading historical data...
Loading historical data...
Loading historical data...
Loading historical data...
Loading historical data...
Loading historical data...
Loading historical data...

Documentation

Showing up to 5 results
|